AKDT,Max TemperatureF,Mean TemperatureF,Min TemperatureF,Max Dew PointF,MeanDew PointF,Min DewpointF,Max Humidity, Mean Humidity, Min Humidity, Max Sea Level PressureIn, Mean Sea Level PressureIn, Min Sea Level PressureIn, Max VisibilityMiles, Mean VisibilityMiles, Min VisibilityMiles, Max Wind SpeedMPH, Mean Wind SpeedMPH, Max Gust SpeedMPH,PrecipitationIn, CloudCover, Events, WindDirDegrees
2012-10-1,39,32,26,30,25,21,100,71,52,30.00,29.94,29.82,10,10,8,25,11,33,0.00,5,,120
2012-10-2,41,37,33,37,35,28,93,88,81,29.82,29.76,29.74,10,10,6,25,20,32,0.00,8,,135
2012-10-3,39,36,33,37,35,30,93,89,81,29.97,29.91,29.78,10,9,2,15,8,21,0.00,8,,80
2012-10-4,44,40,37,41,36,32,93,84,76,29.90,29.72,29.64,10,10,5,20,10,28,0.00,7,,67
2012-10-5,42,40,39,37,35,34,93,84,76,29.75,29.69,29.63,10,10,8,24,14,33,0.00,6,,122
2012-10-6,41,39,37,37,35,34,93,84,76,29.96,29.79,29.65,10,10,6,21,16,28,0.00,8,,154
2012-10-7,37,34,32,34,31,28,93,87,75,30.30,30.16,29.97,10,8,0,12,8,20,0.00,8,,209
2012-10-8,35,30,23,28,22,16,93,68,48,30.65,30.47,30.30,10,10,10,20,8,23,0.00,3,,343
2012-10-9,33,27,21,19,18,16,80,69,55,30.66,30.64,30.60,10,10,10,16,10,23,0.00,0,,11
2012-10-10,32,24,17,18,16,12,93,73,51,30.61,30.54,30.42,10,10,5,9,6,,0.00,0,,8
2012-10-11,30,20,10,21,15,9,92,75,55,30.41,30.20,30.02,10,10,4,12,5,,0.00,1,,354
2012-10-12,32,26,19,19,16,14,93,70,48,30.01,29.95,29.88,10,9,4,16,8,24,0.00,1,,349
2012-10-13,33,26,19,27,22,16,86,79,64,29.88,29.75,29.64,10,10,5,13,5,,0.00,7,,330
2012-10-14,28,20,10,19,15,7,93,79,51,29.64,29.57,29.54,10,9,1,17,4,17,0.00,4,,317
2012-10-15,24,14,3,16,9,0,92,79,68,29.72,29.64,29.58,10,10,2,13,5,,0.00,0,,337
2012-10-16,28,20,12,14,11,9,86,68,51,30.02,29.87,29.72,10,10,10,21,12,26,0.00,0,,303
2012-10-17,28,22,15,16,11,7,80,63,50,30.23,30.15,30.03,10,10,10,16,12,23,0.00,1,,315
2012-10-18,30,22,14,16,12,9,79,70,55,30.30,30.27,30.24,10,10,8,10,8,16,0.00,1,,342
2012-10-19,21,14,8,19,10,3,93,83,68,30.41,30.34,30.27,10,10,2,7,3,,0.00,5,,5
2012-10-20,28,24,21,25,21,18,93,86,80,30.47,30.45,30.42,10,9,2,14,5,20,0.00,8,,126
2012-10-21,26,25,24,21,18,12,80,72,59,30.42,30.31,30.23,10,10,8,26,16,34,0.00,7,,118
2012-10-22,26,24,21,18,15,12,86,67,59,30.58,30.40,30.25,10,9,2,18,12,26,0.00,8,,140
2012-10-23,30,24,17,21,18,14,93,76,69,30.75,30.69,30.59,10,10,10,8,3,,0.00,5,,356
2012-10-24,23,18,12,19,14,9,93,88,79,30.78,30.75,30.68,10,10,8,6,3,,0.00,0,,9
2012-10-25,30,26,23,21,17,16,86,67,55,30.68,30.57,30.47,10,10,9,12,4,20,0.00,6,,152
2012-10-26,28,22,15,19,17,12,93,79,64,30.49,30.45,30.41,10,10,2,8,3,,0.00,2,,19
2012-10-27,24,17,10,18,12,7,93,83,74,30.42,30.36,30.31,10,10,10,6,3,,0.00,1,,350
2012-10-28,28,20,12,25,18,9,93,87,74,30.34,30.29,30.20,10,9,2,14,2,20,0.00,6,,312
2012-10-29,24,20,15,19,14,9,86,77,68,30.33,30.27,30.21,10,10,10,18,13,25,0.00,3,,282
2012-10-30,24,20,15,19,14,9,86,70,59,30.59,30.48,30.33,10,10,10,23,14,29,0.00,1,,310
2012-10-31,19,14,8,9,5,1,79,65,53,30.60,30.56,30.49,10,10,9,20,8,28,0.00,0,,347